This demonstration page uses our WeatherBlox Daily Observations layout. Learn more.

Left ArrowRight Arrow

Hourly Observations for July 6, 2018

Temp ( °F °C ) Dew Point ( °F °C ) Humidity (%) Winds ( mph kmh ) Pressure ( in mb ) Visibility ( mi km ) Precip ( " mm )
12:17 am 00:17 Clear 72 22 72 22 100 100 N N/A 30.21 1023 10 16.0934 N/A
12:36 am 00:36 Clear 72 22 72 22 100 100 N N/A 30.21 1023 10 16.0934 N/A
12:56 am 00:56 Clear 70 21 70 21 100 100 WNW 3 6 30.24 1024 7 11.26538 N/A
1:17 am 01:17 Clear 70 21 70 21 100 100 N N/A 30.24 1024 10 16.0934 N/A
1:36 am 01:36 Clear 70 21 70 21 100 100 N N/A 30.24 1024 7 11.26538 N/A
1:56 am 01:56 Clear 70 21 70 21 100 100 N N/A 30.24 1024 7 11.26538 N/A
2:17 am 02:17 Clear 70 21 70 21 100 100 WNW 5 7 30.24 1024 10 16.0934 N/A
2:36 am 02:36 Clear 70 21 70 21 100 100 N N/A 30.24 1024 10 16.0934 N/A
2:56 am 02:56 Clear 70 21 70 21 100 100 W 3 6 30.24 1024 10 16.0934 N/A
3:17 am 03:17 Clear 70 21 70 21 100 100 WNW 3 6 30.24 1024 10 16.0934 N/A
3:36 am 03:36 Clear 70 21 70 21 100 100 NW 5 7 30.24 1024 10 16.0934 N/A
3:56 am 03:56 Clear 70 21 70 21 100 100 N N/A 30.24 1024 10 16.0934 N/A
4:17 am 04:17 Clear 70 21 70 21 100 100 WNW 5 7 30.24 1024 10 16.0934 N/A
4:36 am 04:36 Clear 70 21 70 21 100 100 NW 5 7 30.24 1024 7 11.26538 N/A
4:57 am 04:57 Clear 70 21 70 21 100 100 NNW 5 7 30.21 1023 7 11.26538 N/A
5:16 am 05:16 Clear 70 21 70 21 100 100 NNW 5 7 30.24 1024 7 11.26538 N/A
5:36 am 05:36 Clear 70 21 70 21 100 100 NNW 5 7 30.24 1024 7 11.26538 N/A
5:57 am 05:57 Clear 70 21 70 21 100 100 N 6 9 30.24 1024 7 11.26538 N/A
6:16 am 06:16 Clear 70 21 70 21 100 100 N 6 9 30.24 1024 7 11.26538 N/A
6:37 am 06:37 Sunny 70 21 70 21 100 100 N 6 9 30.24 1024 7 11.26538 N/A
6:57 am 06:57 Sunny 70 21 70 21 100 100 N 10 17 30.24 1024 7 11.26538 N/A
7:16 am 07:16 Partly Cloudy 70 21 70 21 100 100 N 9 15 30.24 1024 7 11.26538 N/A
7:37 am 07:37 Mostly Cloudy 70 21 70 21 100 100 N 10 17 30.24 1024 7 11.26538 N/A
7:56 am 07:56 Cloudy 70 21 70 21 100 100 N 9 15 30.24 1024 7 11.26538 N/A
8:16 am 08:16 Mostly Cloudy 72 22 72 22 100 100 N 9 15 30.27 1025 7 11.26538 N/A
8:37 am 08:37 Partly Cloudy 72 22 72 22 100 100 N 12 19 30.27 1025 10 16.0934 N/A
8:56 am 08:56 Sunny 73 23 73 23 100 100 N 13 20 30.27 1025 10 16.0934 N/A
9:17 am 09:17 Sunny 73 23 73 23 100 100 NNE 14 22 30.27 1025 10 16.0934 N/A
9:37 am 09:37 Partly Cloudy 75 24 73 23 94 94 NNE 17 28 30.24 1024 10 16.0934 N/A
9:56 am 09:56 Partly Cloudy 75 24 73 23 94 94 NNE 13 20 30.24 1024 10 16.0934 N/A
10:17 am 10:17 Cloudy 73 23 72 22 94 94 NNE 12 19 30.27 1025 10 16.0934 N/A
10:36 am 10:36 Cloudy 73 23 72 22 94 94 NNE 13 20 30.27 1025 10 16.0934 N/A
10:56 am 10:56 Cloudy 73 23 72 22 94 94 NNE 13 20 30.3 1026 10 16.0934 N/A
11:17 am 11:17 Cloudy 73 23 70 21 89 89 N 14 22 30.3 1026 10 16.0934 N/A
11:36 am 11:36 Cloudy 73 23 70 21 89 89 NNE 15 24 30.3 1026 10 16.0934 N/A
11:56 am 11:56 Cloudy 73 23 70 21 89 89 NNE 13 20 30.3 1026 10 16.0934 N/A
12:17 pm 12:17 Cloudy 75 24 70 21 83 83 NE 14 22 30.27 1025 10 16.0934 N/A
12:36 pm 12:36 Cloudy 75 24 70 21 83 83 NNE 12 19 30.27 1025 10 16.0934 N/A
12:56 pm 12:56 Mostly Cloudy 77 25 70 21 79 79 NE 13 20 30.27 1025 10 16.0934 N/A
1:17 pm 13:17 Sunny 77 25 72 22 83 83 NE 13 20 30.27 1025 10 16.0934 N/A
1:36 pm 13:36 Sunny 79 26 68 20 70 70 N 13 20 30.27 1025 10 16.0934 N/A
1:56 pm 13:56 Sunny 79 26 68 20 70 70 NNE 12 19 30.27 1025 10 16.0934 N/A
2:17 pm 14:17 Sunny 79 26 68 20 70 70 NNE 12 19 30.24 1024 10 16.0934 N/A
2:36 pm 14:36 Sunny 81 27 66 19 62 62 NNE 13 20 30.24 1024 10 16.0934 N/A
2:56 pm 14:56 Sunny 81 27 66 19 62 62 N 14 22 30.24 1024 10 16.0934 N/A
3:17 pm 15:17 Sunny 81 27 64 18 58 58 N 17 28 30.24 1024 10 16.0934 N/A
3:36 pm 15:36 Sunny 81 27 68 20 66 66 N 13 20 30.24 1024 10 16.0934 N/A
3:57 pm 15:57 Sunny 81 27 64 18 58 58 NNE 10 17 30.24 1024 10 16.0934 N/A
4:16 pm 16:16 Sunny 81 27 64 18 58 58 NNE 15 24 30.21 1023 10 16.0934 N/A
4:36 pm 16:36 Sunny 79 26 64 18 61 61 NNE 15 24 30.21 1023 10 16.0934 N/A
4:57 pm 16:57 Sunny 79 26 64 18 61 61 N 16 26 30.21 1023 10 16.0934 N/A
5:16 pm 17:16 Sunny 79 26 64 18 61 61 N 14 22 30.21 1023 10 16.0934 N/A
5:36 pm 17:36 Sunny 79 26 64 18 61 61 N 12 19 30.21 1023 10 16.0934 N/A
5:57 pm 17:57 Sunny 79 26 63 17 58 58 NNE 14 22 30.21 1023 10 16.0934 N/A
6:16 pm 18:16 Sunny 79 26 63 17 58 58 N 13 20 30.21 1023 10 16.0934 N/A
6:37 pm 18:37 Sunny 79 26 63 17 58 58 NNE 14 22 30.21 1023 10 16.0934 N/A
6:56 pm 18:56 Sunny 77 25 61 16 57 57 NNE 12 19 30.21 1023 10 16.0934 N/A
7:16 pm 19:16 Sunny 77 25 61 16 57 57 NE 12 19 30.21 1023 10 16.0934 N/A
7:37 pm 19:37 Sunny 75 24 61 16 61 61 NE 12 19 30.21 1023 10 16.0934 N/A
7:56 pm 19:56 Sunny 75 24 61 16 61 61 NE 8 13 30.21 1023 10 16.0934 N/A
8:16 pm 20:16 Sunny 73 23 61 16 65 65 NE 8 13 30.24 1024 10 16.0934 N/A
8:37 pm 20:37 Sunny 72 22 63 17 73 73 NE 6 9 30.24 1024 10 16.0934 N/A
8:56 pm 20:56 Sunny 70 21 63 17 78 78 NE 5 7 30.24 1024 10 16.0934 N/A
9:17 pm 21:17 Clear 68 20 63 17 83 83 NNE 3 6 30.24 1024 10 16.0934 N/A
9:36 pm 21:36 Clear 66 19 63 17 88 88 N N/A 30.27 1025 10 16.0934 N/A
9:56 pm 21:56 Clear 64 18 63 17 94 94 N N/A 30.27 1025 10 16.0934 N/A
10:16 pm 22:16 Clear 63 17 63 17 100 100 NE 3 6 30.27 1025 10 16.0934 N/A
10:36 pm 22:36 Clear 64 18 63 17 94 94 N N/A 30.27 1025 10 16.0934 N/A
10:57 pm 22:57 Clear 63 17 61 16 94 94 N N/A 30.27 1025 10 16.0934 N/A
11:16 pm 23:16 Clear 61 16 61 16 100 100 NE 5 7 30.27 1025 10 16.0934 N/A
11:36 pm 23:36 Clear 61 16 61 16 100 100 ENE 3 6 30.27 1025 10 16.0934 N/A
11:57 pm 23:57 Clear 61 16 59 15 94 94 ENE 3 6 30.27 1025 10 16.0934 N/A

Powered by AerisWeather